[[{"header":{"parameterUnit":"m.s-1","parameterCategory":1,"la1":30.2991,"la2":30.254,"lo1":-89.0895,"lo2":-89.0444,"dy":0.0017,"dx":0.0017,"nx":28,"ny":28,"refTime":"2026-02-12T03:00:00:Z","depth":0,"parameterNumber":2,"parameterNumberName":"U-component_of_WINDS"},"data":[0,0,0,0,0,0,0,0,0,0,0,0,0,0,0,0,0,0,0,0,0,0,0,0,0,0,0,0,0,0,0,0,0,0,0,0,0,0,0,0,0,0,0,0,0,0,0,0,0,0,0,0,0,0,0,0,0,0,-2.2731,-2.2731,0,-2.2743,-2.2743,-2.2743,-2.2712,-2.2711,-2.271,-2.2709,-2.2722,-2.2723,-2.2724,0,0,0,0,0,0,0,0,0,0,0,0,0,-2.2683,-2.2684,-2.2731,-2.2732,-2.2732,-2.2743,-2.2743,-2.2743,-2.2712,-2.2711,-2.271,-2.2709,-2.2721,-2.2723,-2.2724,0,0,0,0,0,0,0,0,0,0,0,0,0,-2.27,-2.2684,-2.2731,-2.2717,-2.2716,-2.2743,-2.2743,-2.2744,-2.2712,-2.2711,-2.2709,-2.2708,-2.2721,-2.2723,-2.2725,-2.2766,0,0,-2.273,-2.2731,0,0,0,0,0,0,0,0,-2.2699,-2.2702,-2.2719,-2.2718,-2.2717,-2.2725,-2.2731,-2.2751,-2.2713,-2.2714,-2.2709,-2.2707,-2.2724,-2.2726,-2.2731,-2.2766,-2.2767,-2.2731,-2.2732,-2.2732,-2.2733,0,0,0,0,0,0,0,-2.2698,-2.2701,-2.2736,-2.272,-2.2718,-2.2711,-2.2712,-2.2734,-2.2727,-2.2714,-2.2711,-2.2713,-2.2723,-2.2729,-2.2731,-2.2767,-2.273,-2.2732,-2.2733,-2.2734,-2.2838,-2.284,0,0,0,0,0,0,-2.2698,-2.27,-2.2736,-2.2736,-2.2704,-2.2713,-2.2714,-2.2724,-2.2727,-2.2726,-2.2714,-2.2712,-2.2727,-2.2729,-2.2731,-2.2781,-2.2732,-2.2734,-2.2735,-2.2837,-2.2839,-2.284,0,0,0,0,0,0,-2.2697,-2.2702,-2.2735,-2.2718,-2.2721,-2.2715,-2.2727,-2.2725,-2.2731,-2.2727,-2.2726,-2.2722,-2.2726,-2.2729,-2.2758,-2.2781,-2.2735,-2.2737,-2.2835,-2.2837,-2.284,-2.288,0,0,0,0,0,0,-2.2696,-2.2702,-2.2717,-2.2718,-2.2723,-2.2761,-2.2728,-2.2726,-2.2734,-2.2731,-2.2734,-2.2733,-2.2725,-2.2755,-2.276,-2.2783,-2.2738,-2.2833,-2.2836,-2.2839,-2.2876,-2.2883,-2.2889,0,0,0,0,0,-2.2695,-2.2728,-2.2718,-2.2722,-2.2741,-2.2762,-2.2765,-2.2754,-2.2736,-2.2752,-2.275,-2.2733,-2.2777,-2.2758,-2.2763,-2.2787,-2.2831,-2.2835,-2.2838,-2.2874,-2.2882,-2.2889,0,0,0,0,0,0,-2.2729,-2.2728,-2.2717,-2.2751,-2.2757,-2.2757,-2.2776,-2.2763,-2.2775,-2.2771,-2.2758,-2.2759,-2.2791,-2.2791,-2.277,-2.2828,-2.2801,-2.2806,-2.2826,-2.2834,-2.2841,-2.284,-2.274,0,0,0,0,0,-2.2741,-2.2758,-2.2755,-2.2786,-2.279,-2.2783,-2.2791,-2.2783,-2.2788,-2.2791,-2.2791,-2.2797,-2.2813,-2.2823,-2.2837,-2.2876,-2.2877,-2.2895,-2.2901,-2.2907,-2.2911,-2.2934,-2.2942,-2.2853,-2.2852,-2.2852,0,0,-2.2765,-2.2766,-2.2778,-2.2793,-2.2797,-2.2815,-2.2785,-2.2805,-2.2819,-2.2794,-2.2822,-2.2822,-2.2828,-2.2863,-2.2878,-2.2865,-2.2936,-2.2911,-2.2916,-2.2918,-2.2938,-2.2947,-2.2954,-2.2855,-2.2855,-2.2854,0,0,-2.2818,-2.2821,-2.2847,-2.2852,-2.2858,-2.2853,-2.2859,-2.2861,-2.2861,-2.2888,-2.287,-2.2886,-2.2913,-2.2919,-2.2925,-2.2982,-2.2968,-2.2987,-2.3021,-2.3043,-2.305,-2.3056,-2.3078,-2.3086,-2.2991,-2.2992,-2.2992,0,-2.2848,-2.2875,-2.2862,-2.2885,-2.2892,-2.287,-2.2898,-2.2902,-2.2913,-2.2919,-2.2904,-2.2938,-2.294,-2.2977,-2.2991,-2.2996,-2.3004,-2.2987,-2.305,-2.3056,-2.3062,-2.3082,-2.309,-2.2994,-2.2994,-2.2993,-2.2993,0,-2.2911,-2.293,-2.2951,-2.2962,-2.2972,-2.2997,-2.2988,-2.3,-2.2991,-2.2988,-2.3017,-2.3019,-2.3034,-2.3042,-2.3032,-2.3077,-2.3069,-2.3052,-2.3025,-2.3073,-2.3092,-2.31,-2.2997,-2.2996,-2.2996,-2.2995,0,0,-2.2987,-2.2992,-2.3,-2.3005,-2.301,-2.3025,-2.3049,-2.3063,-2.3074,-2.3082,-2.3103,-2.3126,-2.3111,-2.3118,-2.3109,-2.3128,-2.3175,-2.3109,-2.3109,-2.3123,-2.3226,-2.324,-2.3249,-2.3165,-2.3167,-2.3168,-2.3226,0,-2.3042,-2.3083,-2.3073,-2.3114,-2.3132,-2.3112,-2.3133,-2.3139,-2.3137,-2.3152,-2.315,-2.3167,-2.3145,-2.3149,-2.3167,-2.3166,-2.3196,-2.3161,-2.3186,-2.3187,-2.3186,-2.3259,-2.3274,-2.3329,-2.3234,-2.3235,-2.3236,0,-2.311,-2.3122,-2.3165,-2.3168,-2.3176,-2.3195,-2.3208,-2.3222,-2.3229,-2.3226,-2.3235,-2.3223,-2.3247,-2.322,-2.3254,-2.3231,-2.324,-2.3241,-2.3243,-2.3246,-2.3215,-2.3266,-2.3346,-2.3355,-2.3247,-2.3246,-2.3245,0,-2.3164,-2.3189,-2.3219,-2.3224,-2.3228,-2.3242,-2.3245,-2.325,-2.326,-2.3271,-2.3278,-2.3292,-2.33,-2.3311,-2.3304,-2.3284,-2.334,-2.3311,-2.3339,-2.334,-2.3353,-2.3353,-2.3437,-2.3357,-2.3357,-2.3356,-2.3356,0,-2.3226,-2.3253,-2.3243,-2.3261,-2.3292,-2.328,-2.331,-2.3311,-2.3316,-2.3334,-2.3317,-2.3335,-2.3323,-2.334,-2.3334,-2.3364,-2.3368,-2.3367,-2.3365,-2.3369,-2.337,-2.3376,-2.3373,-2.3359,-2.3358,-2.3358,-2.3357,0,-2.3291,-2.3285,-2.3316,-2.3318,-2.3319,-2.3341,-2.3343,-2.3361,-2.3357,-2.3381,-2.3386,-2.3381,-2.3401,-2.3394,-2.3414,-2.341,-2.3449,-2.3442,-2.3447,-2.3446,-2.3475,-2.3473,-2.3568,-2.3581,-2.3491,-2.3492,-2.3492,0,-2.3332,-2.3353,-2.3357,-2.3368,-2.3372,-2.339,-2.34,-2.339,-2.3401,-2.3411,-2.3427,-2.3445,-2.3459,-2.3491,-2.3489,-2.3505,-2.3499,-2.3531,-2.3501,-2.3505,-2.3501,-2.3501,-2.3504,-2.3538,-2.3539,-2.354,-2.354,0,-2.3406,-2.3402,-2.3417,-2.3431,-2.3444,-2.3455,-2.3464,-2.3474,-2.3464,-2.3478,-2.3497,-2.3508,-2.3529,-2.3548,-2.3562,-2.3565,-2.3552,-2.355,-2.3557,-2.3562,-2.3565,-2.3566,-2.3465,-2.3548,-2.3547,-2.3546,-2.3546,-2.3546,-2.3461,-2.3479,-2.3485,-2.3503,-2.3509,-2.3518,-2.3535,-2.3534,-2.355,-2.3567,-2.356,-2.3583,-2.359,-2.3608,-2.3613,-2.3632,-2.3619,-2.363,-2.3633,-2.3636,-2.3641,-2.3561,-2.3634,-2.3634,-2.3633,-2.3633,-2.3633,0,-2.3535,-2.3538,-2.3555,-2.3569,-2.3583,-2.3568,-2.3578,-2.3591,-2.3612,-2.3619,-2.3633,-2.3657,-2.3675,-2.3675,-2.3692,-2.3707,-2.3701,-2.3712,-2.3711,-2.3713,-2.365,-2.3642,-2.3716,-2.3716,-2.3716,-2.3716,-2.3716,-2.3716,-2.3576,-2.3606,-2.3603,-2.3637,-2.364,-2.3662,-2.3669,-2.3678,-2.3684,-2.3711,-2.3726,-2.3726,-2.3731,-2.3748,-2.3765,-2.3764,-2.3772,-2.3785,-2.3783,-2.3725,-2.3717,-2.3709,-2.3702,-2.3787,-2.3787,-2.3844,-2.3845,-2.3845]},{"header":{"parameterUnit":"m.s-1","parameterCategory":1,"la1":30.2991,"la2":30.254,"lo1":-89.0895,"lo2":-89.0444,"dy":0.0017,"dx":0.0017,"nx":28,"ny":28,"refTime":"2026-02-12T03:00:00:Z","depth":0,"parameterNumber":3,"parameterNumberName":"V-component_of_WINDS"},"data":[0,0,0,0,0,0,0,0,0,0,0,0,0,0,0,0,0,0,0,0,0,0,0,0,0,0,0,0,0,0,0,0,0,0,0,0,0,0,0,0,0,0,0,0,0,0,0,0,0,0,0,0,0,0,0,0,0,0,-2.9373,-2.9373,0,-2.9351,-2.9351,-2.935,-2.9327,-2.9327,-2.9326,-2.9326,-2.9303,-2.9302,-2.9302,0,0,0,0,0,0,0,0,0,0,0,0,0,-2.9396,-2.9396,-2.9374,-2.9373,-2.9373,-2.9351,-2.9351,-2.935,-2.9327,-2.9327,-2.9326,-2.9326,-2.9303,-2.9302,-2.9302,0,0,0,0,0,0,0,0,0,0,0,0,0,-2.9381,-2.9396,-2.9374,-2.9359,-2.9357,-2.9351,-2.9351,-2.935,-2.9327,-2.9326,-2.9326,-2.9326,-2.9303,-2.9302,-2.9302,-2.9309,0,0,-2.93,-2.93,0,0,0,0,0,0,0,0,-2.9382,-2.938,-2.9361,-2.936,-2.9358,-2.9341,-2.935,-2.9336,-2.9327,-2.9338,-2.9326,-2.9325,-2.9316,-2.9314,-2.9311,-2.9308,-2.9307,-2.93,-2.93,-2.93,-2.93,0,0,0,0,0,0,0,-2.9383,-2.9381,-2.9365,-2.9361,-2.9359,-2.9353,-2.935,-2.9347,-2.933,-2.9337,-2.9336,-2.9333,-2.9315,-2.9312,-2.931,-2.9306,-2.93,-2.93,-2.93,-2.93,-2.9307,-2.9307,0,0,0,0,0,0,-2.9386,-2.9382,-2.9365,-2.9364,-2.9369,-2.9353,-2.935,-2.9347,-2.933,-2.9327,-2.9334,-2.9332,-2.9313,-2.9311,-2.9309,-2.9316,-2.93,-2.9299,-2.9299,-2.9306,-2.9307,-2.9307,0,0,0,0,0,0,-2.9387,-2.9385,-2.9366,-2.9373,-2.937,-2.9353,-2.935,-2.9347,-2.9344,-2.9327,-2.9324,-2.9334,-2.9312,-2.931,-2.9309,-2.9315,-2.9299,-2.9299,-2.9306,-2.9306,-2.9307,-2.9329,0,0,0,0,0,0,-2.9388,-2.9385,-2.9388,-2.9373,-2.9369,-2.9366,-2.935,-2.9347,-2.9343,-2.9341,-2.9326,-2.9323,-2.9312,-2.931,-2.9308,-2.9314,-2.9298,-2.9305,-2.9306,-2.9307,-2.9328,-2.933,-2.9333,0,0,0,0,0,-2.9389,-2.9395,-2.9388,-2.9386,-2.9372,-2.9367,-2.9365,-2.9351,-2.9343,-2.9346,-2.9335,-2.9324,-2.9314,-2.931,-2.9308,-2.9313,-2.9305,-2.9306,-2.9307,-2.9326,-2.933,-2.9333,0,0,0,0,0,0,-2.9412,-2.9393,-2.9385,-2.9387,-2.9379,-2.9363,-2.9365,-2.9355,-2.9349,-2.9347,-2.933,-2.9327,-2.9328,-2.932,-2.9316,-2.9319,-2.9308,-2.9309,-2.9323,-2.9326,-2.9329,-2.9331,-2.9298,0,0,0,0,0,-2.9417,-2.9414,-2.9398,-2.9401,-2.9397,-2.9382,-2.9379,-2.9369,-2.936,-2.9356,-2.9346,-2.9337,-2.9332,-2.9329,-2.9323,-2.9327,-2.9323,-2.9329,-2.9332,-2.9334,-2.9335,-2.9335,-2.9338,-2.9311,-2.9311,-2.9311,0,0,-2.9428,-2.9417,-2.9417,-2.9405,-2.9398,-2.9395,-2.9379,-2.9377,-2.9375,-2.9356,-2.9354,-2.9346,-2.9335,-2.9336,-2.9336,-2.933,-2.9341,-2.9335,-2.9337,-2.9337,-2.9337,-2.9339,-2.9342,-2.9311,-2.9311,-2.9311,0,0,-2.9446,-2.9438,-2.944,-2.9432,-2.9421,-2.941,-2.9411,-2.9396,-2.939,-2.9388,-2.9374,-2.9371,-2.9363,-2.9355,-2.935,-2.9366,-2.9355,-2.9364,-2.9377,-2.9378,-2.938,-2.9382,-2.9387,-2.9389,-2.9365,-2.9365,-2.9365,0,-2.9461,-2.9456,-2.9442,-2.944,-2.9436,-2.9418,-2.942,-2.9413,-2.94,-2.9398,-2.9391,-2.938,-2.9372,-2.937,-2.9374,-2.9371,-2.937,-2.9366,-2.9381,-2.9383,-2.9384,-2.9389,-2.9391,-2.9366,-2.9366,-2.9366,-2.9366,0,-2.9475,-2.9472,-2.9475,-2.9463,-2.9458,-2.9458,-2.9443,-2.9441,-2.9431,-2.9422,-2.9419,-2.9409,-2.94,-2.9399,-2.939,-2.9397,-2.9393,-2.9384,-2.9373,-2.9388,-2.9392,-2.9394,-2.9368,-2.9368,-2.9367,-2.9367,0,0,-2.9507,-2.9487,-2.9488,-2.9482,-2.9468,-2.9466,-2.9465,-2.9456,-2.9454,-2.9446,-2.9445,-2.9438,-2.9429,-2.9424,-2.9414,-2.9414,-2.9426,-2.9405,-2.9405,-2.9409,-2.9432,-2.9439,-2.9441,-2.9419,-2.942,-2.942,-2.9433,0,-2.9523,-2.952,-2.9507,-2.9508,-2.9504,-2.9488,-2.9487,-2.9478,-2.9469,-2.9465,-2.9455,-2.945,-2.9439,-2.9436,-2.9436,-2.9425,-2.9431,-2.9424,-2.9417,-2.9417,-2.942,-2.9444,-2.9451,-2.9464,-2.9435,-2.9435,-2.9435,0,-2.9541,-2.9533,-2.9534,-2.952,-2.9518,-2.9517,-2.9508,-2.9505,-2.9494,-2.9487,-2.9481,-2.947,-2.9467,-2.9457,-2.9453,-2.9449,-2.9445,-2.944,-2.944,-2.9438,-2.9427,-2.9442,-2.9468,-2.947,-2.9438,-2.9437,-2.9437,0,-2.9564,-2.9554,-2.9553,-2.9549,-2.9532,-2.9532,-2.9525,-2.9514,-2.951,-2.9502,-2.9499,-2.9491,-2.9487,-2.9481,-2.9468,-2.9461,-2.9465,-2.9454,-2.9459,-2.946,-2.9461,-2.9461,-2.9485,-2.9459,-2.9459,-2.9459,-2.9459,0,-2.9582,-2.9583,-2.9563,-2.9562,-2.9563,-2.9547,-2.9548,-2.954,-2.953,-2.9527,-2.9512,-2.951,-2.9493,-2.9488,-2.9478,-2.9476,-2.9474,-2.9469,-2.9466,-2.947,-2.947,-2.9467,-2.9466,-2.946,-2.946,-2.9459,-2.9459,0,-2.9608,-2.9594,-2.9592,-2.9576,-2.9572,-2.9573,-2.956,-2.9558,-2.9548,-2.9545,-2.9543,-2.9528,-2.9522,-2.9508,-2.9498,-2.9491,-2.9492,-2.9487,-2.9495,-2.9494,-2.95,-2.9499,-2.9523,-2.9525,-2.9498,-2.9498,-2.9498,0,-2.962,-2.962,-2.9605,-2.9602,-2.9595,-2.9591,-2.9587,-2.9571,-2.9567,-2.9555,-2.9555,-2.9548,-2.9542,-2.9533,-2.952,-2.9513,-2.9507,-2.9516,-2.9506,-2.951,-2.9507,-2.9507,-2.9507,-2.9518,-2.9518,-2.9519,-2.9519,0,-2.9644,-2.9637,-2.9631,-2.9623,-2.9618,-2.9611,-2.9603,-2.9602,-2.9585,-2.9581,-2.9574,-2.9569,-2.9559,-2.9552,-2.9543,-2.9535,-2.9524,-2.9522,-2.9523,-2.9527,-2.9532,-2.9529,-2.9501,-2.9522,-2.9521,-2.9521,-2.9521,-2.9521,-2.9663,-2.9662,-2.9651,-2.9645,-2.9637,-2.963,-2.9628,-2.9618,-2.9612,-2.9603,-2.9594,-2.9589,-2.9578,-2.9564,-2.9557,-2.9552,-2.9547,-2.9548,-2.9548,-2.9549,-2.955,-2.9533,-2.955,-2.955,-2.955,-2.955,-2.955,0,-2.9685,-2.9677,-2.9672,-2.9661,-2.9656,-2.9646,-2.9637,-2.9634,-2.9629,-2.962,-2.9614,-2.9606,-2.9599,-2.9586,-2.9578,-2.9577,-2.9571,-2.9575,-2.9575,-2.9573,-2.9556,-2.9556,-2.9579,-2.9579,-2.9579,-2.9579,-2.9579,-2.9579,-2.9696,-2.9695,-2.9687,-2.9681,-2.9673,-2.9667,-2.9662,-2.9656,-2.9648,-2.9641,-2.9635,-2.9626,-2.9615,-2.9606,-2.9599,-2.9595,-2.9593,-2.9598,-2.9593,-2.9577,-2.9574,-2.9572,-2.9572,-2.9598,-2.9598,-2.961,-2.961,-2.9611]}]]